SCP
0 0 0 0 0 0 0 0 0 0 0 0 0 0 0 0 0 0 0 0 0 0 0 0 0 0 0 0 0 0 0 0 0 0 0 0 0 0
0 0 0 0 0 0 0 0 0 0 0 0 0 0 0 0 0 0 0 0 0 0 0 0 0 0 0 0 0 0 0 0 0 0 0 0 0 0
0 0 0 0 0 0 0 0 0 0 0 0 0 0 0 0 0 0 0 0 0 0 0 0 0 0 0 0 0 0 0 0 0 0 0 0 0 0
0 0 0 0 0 0 0 0 0 0 0 0 0 0 0 0 0 0 0 0 0 0 0 0 0 0 0 0 0 0 0 0 0 0 0 0 0 0
0 0 0 0 0 0 0 0 0 0 0 0 0 0 0 0 0 0 0 0 0 0 0 0 0 0 0 0 0 0 0 0 0 0 0 0 0 0
0 0 0 0 0 0 0 0 0 0 0 0 0 0 0 0 0 0 0 0 0 0 0 0 0 0 0 0 0 0 0 0 0 0 0 0 0 0
0 0 0 0 0 0 0 0 0 0 0 0 0 0 0 0 0 0 0 0 0 0 0 0 0 0 0 0 0 0 0 0 0 0 0 0 0 0
0 0 0 0 0 0 0 0 0 0 0 0 0 0 0 0 0 0 0 0 0 0 0 0 0 0 0 0 0 0 0 0 0 0 0 0 0 0
0 0 0 0 0 0 0 0 0 0 0 0 0 0 0 0 0 0 0 0 0 0 0 0 0 0 0 0 0 0 0 0 0 0 0 0 0 0
0 0 0 0 0 0 0 0 0 0 0 0 0 0 0 0 0 0 0 0 0 0 0 0 0 0 0 0 0 0 0 0 0 0 0 0 0 0
0 0 0 0 0 0 0 0 0 0 0 0 0 0 0 0 0 0 0 0 0 0 0 0 0 0 0 0 0 0 0 0 0 0 0 0 0 0
0 0 0 0 0 0 0 0 0 0 0 0 0 0 0 0 0 0 0 0 0 0 0 0 0 0 0 0 0 0 0 0 0 0 0 0 0 0
0 0 0 0 0 0 0 0 0 0 0 0 0 0 0 0 0 0 0 0 0 0 0 0 0 0 0 0 0 0 0 0 0 0 0 0 0 0
0 0 0 0 0 0 0 0 0 0 0 0 0 0 0 0 0 0 0 0 0 0 0 0 0 0 0 0 0 0 0 0 0 0 0 0 0 0
0 0 0 0 0 0 0 0 0 0 0 0 0 0 0 0 0 0 0 0 0 0 0 0 0 0 0 0 0 0 0 0 0 0 0 0 0 0
0 0 0 0 0 0 0 0 0 0 0 0 0 0 0 0 0 0 0 0 0 0 0 0 0 0 0 0 0 0 0 0 0 0 0 0 0 0
0 0 0 0 0 0 0 0 0 0 0 0 0 0 0 0 0 0 0 0 0 0 0 0 0 0 0 0 0 0 0 0 0 0 0 0 0 0
0 0 0 0 0 0 0 0 0 0 0 0 0 0 0 0 0 0 0 0 0 0 0 0 0 0 0 0 0 0 0 0 0 0 0 0 0 0
0 0 0 0 0 0 0 0 0 0 0 0 0 0 0 0 0 0 0 0 0 0 0 0 0 0 0 0 0 0 0 0 0 0 0 0 0 0
0 0 0 0 0 0 0 0 0 0 0 0 0 0 0 0 0 0 0 0 0 0 0 0 0 0 0 0 0 0 0 0 0 0 0 0 0 0
0 0 0 0 0 0 0 0 0 0 0 0 0 0 0 0 0 0 0 0 0 0 0 0 0 0 0 0 0 0 0 0 0 0 0 0 0 0
0 0 0 0 0 0 0 0 0 0 0 0 0 0 0 0 0 0 0 0 0 0 0 0 0 0 0 0 0 0 0 0 0 0 0 0 0 0
0 0 0 0 0 0 0 0 0 0 0 0 0 0 0 0 0 0 0 0 0 0 0 0 0 0 0 0 0 0 0 0 0 0 0 0 0 0
Wind_Speed
1 1 1 1 1 2 2 2 2 6 7 5 4 5 6 6 10 8 8 16 18 18 18 17 17 17 18 18 18 19 19 19 19 19 20 20 20 20
1 1 1 1 1 2 2 2 2 4 6 5 5 6 7 8 13 9 9 18 17 18 18 17 17 17 17 18 18 18 18 18 19 19 20 20 20 20
1 1 2 2 2 2 2 2 3 3 6 7 5 6 7 8 9 7 8 7 8 16 17 17 17 17 17 17 17 18 18 18 19 19 20 20 19 19
2 2 2 2 3 2 2 3 3 4 5 8 7 6 7 8 8 9 8 8 7 14 17 17 17 17 17 17 17 17 17 18 18 18 19 19 19 19
3 2 3 2 3 3 3 4 4 4 4 6 7 6 6 6 8 8 8 7 8 10 13 14 16 17 17 17 17 17 17 17 17 18 18 18 18 18
3 3 3 3 4 4 4 4 4 4 4 5 6 6 6 6 6 7 8 7 7 7 9 11 14 15 16 17 17 16 16 16 17 17 17 17 17 17
2 3 3 4 5 4 4 4 3 3 4 5 6 6 6 7 7 6 8 8 7 4 6 7 7 6 8 12 14 15 16 16 16 17 17 16 16 16
2 3 3 4 5 6 8 8 6 5 5 5 5 7 8 7 6 7 7 8 7 4 6 8 5 6 6 5 12 15 15 16 16 16 16 16 16 16
2 2 3 4 5 4 6 7 7 8 7 5 6 7 7 7 7 7 7 7 7 7 6 7 5 6 6 7 14 14 15 15 16 16 16 16 15 15
2 3 3 4 5 5 4 5 5 5 7 5 5 6 6 6 6 6 7 7 7 5 3 5 5 5 7 6 11 14 15 15 16 16 16 16 16 15
2 2 3 3 7 8 4 5 6 6 7 9 9 9 11 11 9 5 5 6 7 5 3 3 4 6 5 4 7 13 14 16 16 16 16 16 16 14
2 3 4 6 7 7 3 4 5 6 6 6 7 8 7 7 9 5 4 5 6 5 3 4 4 5 6 4 4 5 7 12 15 15 16 16 15 8
2 2 3 8 8 7 6 4 6 6 4 5 5 5 5 4 4 4 4 4 5 5 4 4 4 4 4 6 5 4 5 5 6 8 12 14 15 11
2 2 4 7 7 7 5 7 8 6 3 4 4 5 5 5 5 5 5 5 5 6 6 5 4 4 5 6 6 5 5 5 5 6 6 10 11 13
2 4 6 6 6 4 7 8 5 3 3 4 4 5 5 5 5 5 5 5 6 5 4 4 4 4 4 5 5 5 6 5 5 5 5 6 6 6
2 3 4 4 4 5 5 4 3 3 4 4 4 5 5 5 5 5 5 6 5 5 5 4 4 4 4 4 4 6 5 5 6 6 6 5 5 5
2 2 2 2 3 3 3 4 4 4 4 4 4 5 5 5 5 5 4 4 4 5 6 5 4 3 4 3 4 5 5 5 5 6 6 5 5 5
2 1 2 2 3 3 4 4 4 4 4 4 5 5 5 5 6 5 4 4 5 5 5 5 5 5 3 2 2 4 4 5 5 6 5 5 5 5
2 2 2 2 3 3 4 4 4 4 4 4 4 5 5 5 5 5 5 5 5 5 5 5 4 4 5 6 5 3 4 5 5 5 4 4 4 6
2 2 2 3 3 3 4 4 4 4 4 4 4 5 5 5 5 5 5 5 5 5 5 4 4 4 4 4 4 5 6 5 4 5 5 3 3 5
3 3 3 3 3 3 4 4 4 4 5 4 4 5 5 5 5 5 5 7 6 5 5 5 5 7 4 2 3 4 4 6 5 4 4 4 4 4
2 3 3 3 3 3 3 4 4 4 5 4 5 5 5 5 5 6 5 5 4 4 5 4 5 4 2 3 4 5 5 6 6 7 5 4 2 3
3 3 3 3 3 3 3 4 5 4 4 4 5 5 5 5 5 5 5 4 4 5 5 4 4 3 3 3 3 3 5 6 5 5 5 7 6 4
Wind_Direction
200 224 260 274 282 278 265 259 278 302 302 299 305 309 315 313 317 318 315 318 323 323 323 324 323 324 324 323 322 322 322 321 320 319 318 317 316 316
219 226 259 275 285 283 279 279 263 268 286 291 294 302 310 315 320 320 312 321 321 322 323 324 325 324 324 323 322 323 322 321 320 319 319 319 318 316
247 241 266 278 282 289 291 286 277 270 282 294 294 302 306 311 315 313 310 309 312 320 322 324 325 325 325 324 323 323 322 322 322 321 320 321 320 318
239 252 273 286 282 285 281 281 280 278 282 298 306 309 306 309 311 312 316 316 309 316 323 323 324 326 325 324 323 324 324 324 325 324 324 324 324 323
232 243 260 269 275 284 282 281 285 293 291 295 302 305 306 311 316 313 312 311 314 317 322 322 323 325 325 325 325 325 325 326 327 327 327 327 326 327
243 248 253 253 259 271 278 283 293 300 302 301 303 308 308 311 316 319 322 323 316 316 320 320 319 323 323 323 323 324 326 328 329 328 329 328 329 330
268 267 267 280 288 289 297 295 296 297 304 306 306 311 314 323 322 316 316 317 309 307 314 311 312 310 315 317 321 324 329 331 332 332 331 331 332 332
278 288 287 280 294 304 308 306 307 305 303 301 302 308 308 310 310 313 315 323 316 319 318 309 309 307 309 308 322 330 334 337 337 336 336 336 336 338
261 282 297 303 308 290 300 309 308 309 305 298 294 298 301 305 310 312 313 312 302 305 313 303 310 306 309 315 327 334 337 339 340 340 342 342 342 342
258 260 275 292 299 306 307 307 302 300 298 296 285 291 297 302 300 300 299 301 294 291 300 298 310 306 309 311 324 336 341 344 345 345 345 346 348 346
280 281 286 284 304 322 320 309 311 310 312 314 313 312 315 319 323 321 318 319 314 308 310 302 308 311 305 300 319 337 342 344 345 345 347 348 349 346
295 293 305 311 313 322 313 305 307 311 319 324 322 320 317 315 323 314 303 309 311 307 317 319 308 320 316 304 313 330 336 339 342 342 345 348 350 348
293 301 304 319 321 322 322 302 306 321 320 318 316 317 317 315 313 307 298 293 296 291 302 314 307 312 299 305 312 319 327 330 333 334 339 345 349 351
294 296 305 322 327 328 326 325 332 339 329 323 321 319 320 317 314 311 305 294 280 280 292 298 295 305 310 307 308 318 323 325 329 329 334 341 344 346
309 320 327 333 336 331 335 340 341 336 329 325 318 313 311 308 312 316 314 309 303 298 300 295 297 302 299 300 306 313 318 322 329 333 337 339 337 339
337 336 343 346 347 339 341 342 341 335 330 314 312 310 313 318 321 323 321 326 326 323 324 319 308 308 310 299 301 310 317 316 324 328 329 331 338 343
354 358 346 343 344 338 336 340 340 339 335 328 321 320 322 324 323 324 322 327 328 326 330 329 321 306 287 293 307 313 318 319 319 328 332 337 345 349
15 345 331 333 328 326 329 331 332 332 329 327 324 324 324 323 323 324 325 329 329 324 323 323 329 333 333 324 293 307 322 321 326 332 334 334 343 352
18 340 325 322 323 324 324 323 323 324 324 323 323 324 324 322 323 326 329 329 325 323 323 325 333 339 343 341 333 339 329 326 331 336 339 339 338 341
351 331 323 321 321 321 321 323 324 328 329 326 325 324 324 324 325 324 323 322 322 323 327 332 339 338 326 318 314 320 328 325 327 334 336 329 327 331
339 334 325 318 316 317 318 320 322 321 322 323 323 323 323 322 321 320 320 323 324 325 328 328 321 318 306 310 322 330 331 342 344 337 335 337 341 353
330 325 321 317 314 314 318 319 319 317 320 321 322 320 320 318 317 318 321 324 325 325 321 319 324 334 346 340 332 329 333 340 348 354 2 8 359 360
318 317 315 316 318 319 317 313 312 312 314 316 317 316 317 318 318 318 320 323 327 330 333 334 336 339 337 330 331 335 341 343 347 1 10 13 17 8